When you browse on this site, cookies collect data to enhance your experience and personalize the content and advertising you see.
Visit our Privacy Policy to learn more. By continuing to use the site, you agree to this use of cookies and data.
  • In Portugal
  • List of Countries
  • For 7 days
  • Water Temperature
  • Satellite Maps
  • Weather Map
  • Weather Widgets
  • user-avatar
    Login

    Hourly Weather Kiustendil

    Today, 22 July, Monday

    Time Temperature Precipitation Wind Pressure Humidity
    00:00 +13°C° 0 mm 1 mps 629 mmHg 65%
    01:00 +13°C° 0 mm 1 mps 629 mmHg 65%
    02:00 +12°C° 0 mm 1 mps 629 mmHg 66%
    03:00 +12°C° 0 mm 1 mps 629 mmHg 67%
    04:00 +12°C° 0 mm 1 mps 629 mmHg 68%
    05:00 +14°C° 0 mm 1 mps 629 mmHg 64%
    06:00 +16°C° 0 mm 1 mps 630 mmHg 60%
    07:00 +19°C° 0 mm 1 mps 631 mmHg 56%
    08:00 +20°C° 0 mm 1 mps 632 mmHg 50%
    09:00 +21°C° 0 mm 2 mps 632 mmHg 44%
    10:00 +23°C° 0 mm 2 mps 633 mmHg 38%
    11:00 +24°C° 0 mm 2 mps 633 mmHg 38%
    12:00 +24°C° 0 mm 2 mps 632 mmHg 37%
    13:00 +25°C° 0 mm 3 mps 632 mmHg 37%
    14:00 +24°C° 0.1 mm 3 mps 632 mmHg 41%
    15:00 +24°C° 0.1 mm 3 mps 632 mmHg 45%
    16:00 +22°C° 0.1 mm 4 mps 631 mmHg 49%
    17:00 +20°C° 0.1 mm 3 mps 631 mmHg 57%
    18:00 +18°C° 0.1 mm 3 mps 630 mmHg 65%
    19:00 +16°C° 0.1 mm 2 mps 629 mmHg 73%
    20:00 +15°C° 0 mm 2 mps 629 mmHg 76%
    21:00 +14°C° 0 mm 2 mps 629 mmHg 79%
    22:00 +13°C° 0 mm 2 mps 629 mmHg 82%
    23:00 +12°C° 0 mm 2 mps 628 mmHg 83%

    Tomorrow, 23 July, Tuesday

    Time Temperature Precipitation Wind Pressure Humidity
    00:00 +12°C° 0 mm 2 mps 628 mmHg 84%
    01:00 +12°C° 0 mm 2 mps 628 mmHg 85%
    02:00 +10°C° 0 mm 2 mps 627 mmHg 87%
    03:00 +10°C° 0 mm 2 mps 627 mmHg 88%
    04:00 +9°C° 0 mm 2 mps 627 mmHg 89%
    05:00 +12°C° 0 mm 2 mps 628 mmHg 81%
    06:00 +14°C° 0 mm 2 mps 628 mmHg 74%
    07:00 +16°C° 0 mm 2 mps 629 mmHg 67%
    08:00 +17°C° 0 mm 2 mps 629 mmHg 62%
    09:00 +18°C° 0 mm 3 mps 629 mmHg 57%
    10:00 +19°C° 0 mm 3 mps 630 mmHg 52%
    11:00 +19°C° 0 mm 4 mps 629 mmHg 50%
    12:00 +20°C° 0 mm 4 mps 629 mmHg 48%
    13:00 +21°C° 0 mm 4 mps 629 mmHg 46%
    14:00 +20°C° 0 mm 4 mps 629 mmHg 47%
    15:00 +20°C° 0 mm 5 mps 629 mmHg 49%
    16:00 +20°C° 0 mm 5 mps 628 mmHg 50%
    17:00 +18°C° 0 mm 4 mps 628 mmHg 57%
    18:00 +16°C° 0 mm 3 mps 627 mmHg 65%
    19:00 +14°C° 0 mm 2 mps 626 mmHg 72%
    20:00 +13°C° 0 mm 2 mps 626 mmHg 75%
    21:00 +12°C° 0 mm 2 mps 626 mmHg 78%
    22:00 +10°C° 0 mm 2 mps 626 mmHg 80%
    23:00 +10°C° 0 mm 2 mps 626 mmHg 82%

    Day after tomorrow, 24 July, Wednesday

    Time Temperature Precipitation Wind Pressure Humidity
    00:00 +10°C° 0 mm 2 mps 626 mmHg 83%
    01:00 +10°C° 0 mm 1 mps 626 mmHg 84%
    02:00 +10°C° 0 mm 1 mps 626 mmHg 86%
    03:00 +9°C° 0 mm 1 mps 626 mmHg 87%
    04:00 +9°C° 0 mm 1 mps 626 mmHg 88%
    05:00 +11°C° 0 mm 1 mps 626 mmHg 81%
    06:00 +13°C° 0 mm 1 mps 627 mmHg 74%
    07:00 +14°C° 0 mm 1 mps 628 mmHg 68%
    08:00 +16°C° 0 mm 1 mps 628 mmHg 63%
    09:00 +18°C° 0 mm 1 mps 629 mmHg 59%
    10:00 +19°C° 0 mm 2 mps 629 mmHg 54%
    11:00 +19°C° 0.1 mm 2 mps 629 mmHg 54%
    12:00 +19°C° 0.1 mm 2 mps 629 mmHg 54%
    13:00 +20°C° 0.1 mm 2 mps 629 mmHg 54%
    14:00 +19°C° 0.1 mm 2 mps 629 mmHg 55%
    15:00 +19°C° 0.1 mm 2 mps 629 mmHg 57%
    16:00 +19°C° 0.1 mm 2 mps 628 mmHg 58%
    17:00 +17°C° 0.1 mm 2 mps 628 mmHg 65%
    18:00 +16°C° 0.1 mm 2 mps 627 mmHg 72%
    19:00 +14°C° 0.1 mm 2 mps 627 mmHg 79%
    20:00 +13°C° 0 mm 2 mps 627 mmHg 81%
    21:00 +13°C° 0 mm 1 mps 627 mmHg 82%
    22:00 +12°C° 0 mm 1 mps 627 mmHg 83%
    23:00 +12°C° 0 mm 1 mps 627 mmHg 84%

    25 July, Thursday

    Time Temperature Precipitation Wind Pressure Humidity
    00:00 +11°C° 0 mm 1 mps 627 mmHg 85%
    01:00 +11°C° 0 mm 1 mps 627 mmHg 86%
    02:00 +11°C° 0 mm 1 mps 627 mmHg 86%
    03:00 +10°C° 0 mm 1 mps 626 mmHg 87%
    04:00 +10°C° 0 mm 1 mps 626 mmHg 88%
    05:00 +12°C° 0 mm 1 mps 627 mmHg 83%
    06:00 +13°C° 0 mm 1 mps 628 mmHg 77%
    07:00 +15°C° 0 mm 1 mps 628 mmHg 72%
    08:00 +16°C° 0 mm 1 mps 629 mmHg 65%
    09:00 +19°C° 0 mm 1 mps 629 mmHg 59%
    10:00 +20°C° 0 mm 1 mps 630 mmHg 52%
    11:00 +21°C° 0 mm 1 mps 630 mmHg 50%
    12:00 +22°C° 0 mm 1 mps 630 mmHg 48%
    13:00 +22°C° 0 mm 1 mps 630 mmHg 46%
    14:00 +21°C° 0 mm 2 mps 629 mmHg 47%
    15:00 +21°C° 0 mm 2 mps 629 mmHg 49%
    16:00 +20°C° 0 mm 2 mps 629 mmHg 50%
    17:00 +18°C° 0 mm 2 mps 628 mmHg 58%
    18:00 +16°C° 0 mm 2 mps 627 mmHg 65%
    19:00 +14°C° 0 mm 2 mps 627 mmHg 72%
    20:00 +14°C° 0 mm 2 mps 627 mmHg 75%
    21:00 +13°C° 0 mm 2 mps 627 mmHg 77%
    22:00 +12°C° 0 mm 2 mps 627 mmHg 80%
    23:00 +12°C° 0 mm 1 mps 626 mmHg 80%

    26 July, Friday

    Time Temperature Precipitation Wind Pressure Humidity
    00:00 +11°C° 0 mm 1 mps 626 mmHg 81%
    01:00 +11°C° 0 mm 1 mps 626 mmHg 81%
    02:00 +11°C° 0 mm 1 mps 626 mmHg 82%
    03:00 +10°C° 0 mm 1 mps 625 mmHg 83%
    04:00 +10°C° 0 mm 1 mps 625 mmHg 84%
    05:00 +12°C° 0 mm 1 mps 626 mmHg 78%
    06:00 +14°C° 0 mm 1 mps 627 mmHg 72%
    07:00 +16°C° 0 mm 1 mps 627 mmHg 65%
    08:00 +19°C° 0 mm 1 mps 628 mmHg 59%
    09:00 +20°C° 0 mm 1 mps 628 mmHg 53%
    10:00 +22°C° 0 mm 1 mps 629 mmHg 48%
    11:00 +22°C° 0 mm 1 mps 629 mmHg 45%
    12:00 +23°C° 0 mm 1 mps 629 mmHg 43%
    13:00 +24°C° 0 mm 1 mps 629 mmHg 41%
    14:00 +23°C° 0 mm 2 mps 628 mmHg 42%
    15:00 +23°C° 0 mm 2 mps 628 mmHg 42%
    16:00 +23°C° 0 mm 2 mps 628 mmHg 43%
    17:00 +20°C° 0 mm 2 mps 627 mmHg 51%
    18:00 +18°C° 0 mm 2 mps 626 mmHg 59%
    19:00 +16°C° 0 mm 2 mps 625 mmHg 68%
    20:00 +15°C° 0 mm 2 mps 625 mmHg 70%
    21:00 +14°C° 0 mm 2 mps 625 mmHg 73%
    22:00 +13°C° 0 mm 1 mps 625 mmHg 76%
    23:00 +13°C° 0 mm 1 mps 625 mmHg 77%

    27 July, Saturday

    Time Temperature Precipitation Wind Pressure Humidity
    00:00 +12°C° 0 mm 1 mps 625 mmHg 78%
    01:00 +12°C° 0 mm 1 mps 624 mmHg 79%
    02:00 +12°C° 0 mm 1 mps 624 mmHg 79%
    03:00 +11°C° 0 mm 1 mps 624 mmHg 80%
    04:00 +11°C° 0 mm 1 mps 624 mmHg 80%
    05:00 +13°C° 0 mm 1 mps 625 mmHg 73%
    06:00 +15°C° 0 mm 1 mps 625 mmHg 67%
    07:00 +18°C° 0 mm 1 mps 626 mmHg 61%
    08:00 +20°C° 0 mm 1 mps 627 mmHg 55%
    09:00 +21°C° 0 mm 1 mps 627 mmHg 50%
    10:00 +23°C° 0 mm 2 mps 628 mmHg 44%
    11:00 +23°C° 0 mm 2 mps 627 mmHg 42%
    12:00 +24°C° 0 mm 2 mps 627 mmHg 40%
    13:00 +25°C° 0 mm 2 mps 627 mmHg 38%
    14:00 +25°C° 0 mm 2 mps 627 mmHg 39%
    15:00 +25°C° 0 mm 2 mps 627 mmHg 39%
    16:00 +24°C° 0 mm 2 mps 626 mmHg 39%
    17:00 +21°C° 0 mm 2 mps 625 mmHg 48%
    18:00 +19°C° 0 mm 2 mps 624 mmHg 57%
    19:00 +16°C° 0 mm 2 mps 624 mmHg 65%
    20:00 +16°C° 0 mm 2 mps 624 mmHg 67%
    21:00 +15°C° 0 mm 1 mps 623 mmHg 69%
    22:00 +14°C° 0 mm 1 mps 623 mmHg 72%
    23:00 +14°C° 0 mm 1 mps 623 mmHg 73%
    Show more